Details From CYVP - Kuujjuaq
To CYPX - Puvirnituq
Flight Number -
Tags Standard
Created
Modified
Stats Distance 299 nm / 553 km
Max Altitude 35,000 ft / 10,668 m
Waypoints 4
Social Downloads 29
Likes 0
Share

Download

Looking for another format? Having issues loading an existing format? Contact us
Advertisement - Login to hide

Notes

None

Route

CYVP YTQ YPX CYPX

ID Type Via Altitude (ft/m) Position (lat/lon) Dist (leg/tot) Name
O CYVP APT - 129 / 39 58.09042 / -68.42736 - / 0 nm
YTQ NDB - 35,000 / 10,668 58.67023 / -69.94749 59 / 59 nm TASIUJAQ NDB
YPX NDB - 74 / 23 60.04389 / -77.27944 238 / 298 nm
O CYPX APT - 74 / 23 60.05042 / -77.28694 0 / 298 nm PUVIRNITUQ

Altitude Profile

Advertisement - Login to hide

Weather


0- 5 10 15 20 25 30 35+ Temperature / °C

Clouds and Precipitation
Forecast for 2021-09-23 18:00 UTC. Updated an hour ago

Ground ~20,000 ft ~40,000 ft Winds

CYVP

Details ICAO CYVP (YVP)
Name KUUJJUAQ
Region Canada
Timezone America/Montreal (UTC-4.0)
Stats Elevation 129 ft / 39 m (AMSL)
Location 58.096900° -68.423300°
Runways 2
Magnetic Variation 21.697° W

METAR

CYVP 231700Z 28007G18KT 260V320 15SM VCSH BKN040 06/M00 A3028 RMK SC7 CU EMBD SLP258

Decode

TAF

TAF CYVP 231138Z 2312/2324 26010G20KT P6SM SCT020 BKN050 BKN120 TEMPO 2312/2316 BKN020 BKN050 BKN120 RMK NXT FCST BY 231800Z

Decode

Departure Runways

ID Width Length Bearing (true/mag) Surface Threshold Overrun Markings Lighting
07 150 ft / 46 m 6,002 ft / 1,829 m 43.43° / 65.13° ASPHALT 0 ft / 0 m 0 ft / 0 m APP EDGE THRESHOLD SSALR
13 150 ft / 46 m 5,000 ft / 1,524 m 102.88° / 124.57° GRAVEL 0 ft / 0 m 0 ft / 0 m VISUAL EDGE THRESHOLD
25 150 ft / 46 m 6,002 ft / 1,829 m 223.45° / 245.15° ASPHALT 0 ft / 0 m 0 ft / 0 m APP EDGE THRESHOLD REIL-OMNI
31 150 ft / 46 m 5,000 ft / 1,524 m 282.90° / 304.60° GRAVEL 0 ft / 0 m 0 ft / 0 m VISUAL EDGE THRESHOLD REIL-OMNI

CYPX

Details ICAO CYPX (YPX)
Name PUVIRNITUQ
Region Canada
Timezone America/Montreal (UTC-4.0)
Stats Elevation 74 ft / 23 m (AMSL)
Location 60.050400° -77.286900°
Runways 1
Magnetic Variation 18.992° W

METAR

CYPX 231700Z AUTO 30007KT 9SM FEW020 OVC032 04/01 A3030 RMK SLP262

Decode

TAF

TAF CYPX 231151Z 2312/2324 28010KT P6SM BKN030 OVC050 TEMPO 2312/2320 P6SM -RA BKN020 OVC040 FM232000 24007KT P6SM SCT030 TEMPO 2320/2324 BKN030 BECMG 2321/2323 VRB03KT RMK FCST BASED ON AUTO OBS. NXT FCST BY 231800Z

Decode

Destination Runways

ID Width Length Bearing (true/mag) Surface Threshold Overrun Markings Lighting
01 100 ft / 30 m 4,971 ft / 1,515 m 343.44° / 2.44° GRAVEL 0 ft / 0 m 0 ft / 0 m VISUAL EDGE THRESHOLD REIL-OMNI
19 100 ft / 30 m 4,971 ft / 1,515 m 163.44° / 182.43° GRAVEL 0 ft / 0 m 0 ft / 0 m VISUAL EDGE THRESHOLD TDZ REIL-OMNI

Popular Alternatives